Погода в Колодезях

Россия / Ростовская область     49°09′23″N   40°26′33″E
темп.,
°C
ветер,
м/с
пор.,
м/с
влажн.,
%
обл.,
%
осадки,
мм/ч
давл.,
гПа
погр.,
м
15 апреля, чт
чт1500:00+12ю4873100 0.0 1015257
03:00+10зюз238566 0.0 101685
06:00+9зюз2487100 0.0 101690
09:00+13зюз346132 0.0 1016612
12:00+17юз44435 0.0 10151580
15:00+18ююз454082 0.0 10152141
18:00+16ююз3547100 0.0 1015865
21:00+13ююз496491 0.0 1016394
16 апреля, пт
пт1600:00+10ююз3676100 0.0 1016226
03:00+9ююз22870 0.0 101726
06:00+8юз229047 0.0 101825
09:00+12ю336247 0.0 1018635
12:00+16ю56415 0.0 10181520
15:00+17ююз6739100 0.0 10172505
18:00+16юз4447100 0.0 10171354
21:00+13ююз5655100 0.0 1019629
17 апреля, сб
сб1700:00+11юз2375100 1.1 1019300
03:00+9зюз4674100 1.8 1019430
06:00+9зсз0180100 1.3 1019142
09:00+10з346499 1.6 1020906
12:00+13зюз4545100 0.3 10201661
15:00+14з353572 0.4 10192279
18:00+13з554495 0.0 10191224
21:00+11зюз234996 0.0 102057
18 апреля, вс
вс1800:00+9зсз385829 0.0 1020189
03:00+7зсз38744 0.0 1020177
06:00+6з388228 0.0 1019198
09:00+9з5776100 0.0 1019363
12:00+10ссз358179 0.1 1020593
15:00+14ссв66513 0.2 10201313
18:00+13св675935 0.0 10211271
21:00+9всв38755 0.0 1023251
19 апреля, пн
пн1900:00+7всв38825 0.0 1024191
03:00+6всв37851 0.0 1025138
06:00+6в410840 0.0 1026264
09:00+12в710545 0.0 1025902
12:00+16вюв894075 0.0 10251663
15:00+16вюв8938100 0.0 10241791
18:00+14вюв8104995 0.0 10241520
21:00+10в91552100 0.0 1023836